This is the latest recevied weather packets stored in our database for station/object ke5jzm-1. If no packets are shown the sender has not sent any weather packets the latest 10 day(s).
| Time | Temp. | Humidity | Pressure | Rain* | Wind** | Luminosity | Snow |
|---|---|---|---|---|---|---|---|
| 1777391942 | 25° C | 61% | 1017.8 hPa | 0 mm | - | 871 W/m² | - |
| 1777391761 | 25° C | 61% | 1017.9 hPa | 0 mm | - | 857 W/m² | - |
| 1777391642 | 25.56° C | 61% | 1017.8 hPa | 0 mm | - | 850 W/m² | - |
| 1777391342 | 25° C | 61% | 1017.9 hPa | 0 mm | - | 854 W/m² | - |
| 1777391222 | 25° C | 61% | 1017.9 hPa | 0 mm | - | 629 W/m² | - |
| 1777391102 | 25° C | 61% | 1017.9 hPa | 0 mm | - | 387 W/m² | - |
| 1777390862 | 25° C | 61% | 1017.9 hPa | 0 mm | - | 410 W/m² | - |
| 1777390562 | 25° C | 61% | 1017.8 hPa | 0 mm | - | 585 W/m² | - |
| 1777390502 | 25° C | 61% | 1017.8 hPa | 0 mm | - | 659 W/m² | - |
| 1777390259 | 25° C | 61% | 1017.8 hPa | 0 mm | - | 338 W/m² | - |
| 1777390018 | 25° C | 61% | 1017.8 hPa | 0 mm | - | 410 W/m² | - |
| 1777389957 | 25° C | 61% | 1017.8 hPa | 0 mm | - | 421 W/m² | - |
| 1777389896 | 25° C | 61% | 1017.7 hPa | 0 mm | - | 575 W/m² | - |
| 1777389742 | 25° C | 61% | 1017.7 hPa | 0 mm | - | 645 W/m² | - |
| 1777389650 | 25° C | 61% | 1017.7 hPa | 0 mm | - | 653 W/m² | - |
| 1777389526 | 25° C | 61% | 1017.6 hPa | 0 mm | - | 819 W/m² | - |
| 1777389407 | 25° C | 61% | 1017.6 hPa | 0 mm | - | 806 W/m² | - |
| 1777389343 | 25° C | 61% | 1017.6 hPa | 0 mm | - | 382 W/m² | - |
| 1777389284 | 25° C | 61% | 1017.6 hPa | 0 mm | - | 611 W/m² | - |
| 1777388978 | 25° C | 61% | 1017.6 hPa | 0 mm | - | 430 W/m² | - |
| 1777388918 | 25° C | 61% | 1017.6 hPa | 0 mm | - | 476 W/m² | - |
| 1777388859 | 25° C | 61% | 1017.6 hPa | 0 mm | - | 651 W/m² | - |
| 1777388679 | 25° C | 61% | 1017.7 hPa | 0 mm | - | 605 W/m² | - |
| 1777388255 | 25° C | 61% | 1017.9 hPa | 0 mm | - | 586 W/m² | - |
| 1777388143 | 25° C | 61% | 1017.6 hPa | 0 mm | - | 398 W/m² | - |
* Rain latest hour (hover to see other rain measurements)
** Current wind speed in m/s (hover to see current wind gust speed)